Flag for India Weather past 2 weeks in Muktsar, Punjab, India

Now
55 °F

Broken clouds.


Feels Like: 54 °F
Forecast: 44 / 64 °F
Wind: 7 mph from North

Location: Lahore Airport

Current Time: Jan 26, 2015 at 2:26:45 PM

Latest Report: Jan 26, 2015 at 1:55 PM


Visibility: 2 mi

Pressure: 30.18 "Hg

Humidity: 72%

Dew point: 46 °F

Location of MuktsarLocation

Historic Weather in Muktsar — Graph

°F

Muktsar temperature yesterday

Maximum temperature yesterday: 57 °F (at 3:25 PM)
Minimum temperature yesterday: 46 °F (at 4:30 AM)
Average temperature yesterday: 51 °F

Past Weeks' High & Low Weather Summary

 TemperatureHumidityPressure
High70 °F (Jan 16, 3:00 PM)100% (Jan 11, 9:55 PM)30.24 "Hg (Jan 11, 9:55 PM)
Low41 °F (Jan 12, 6:55 AM)31% (Jan 17, 3:30 PM)29.92 "Hg (Jan 14, 3:55 AM)
Average53 °F77%30.11 "Hg
* Reported Jan 11 12:55 PM — Jan 26 1:25 PM, Muktsar, Weather by CustomWeather, © 2014

Note: Actual official high and low records may vary slightly from our data, if they occured in-between our weather recording intervals... More about our weather records

Advertising

Muktsar weather history for previous 24 hours

 ConditionsComfort  
Time TempWeatherWind HumidityBarometerVisibility
1:25 PM
Jan 26
55 °FBroken clouds.7 mph72%30.21 "Hg1 mi
12:55 PM55 °FBroken clouds.7 mph72%30.21 "Hg1 mi
12:25 PM55 °FBroken clouds.6 mph72%30.21 "Hg1 mi
11:55 AM54 °FScattered clouds.6 mph72%30.24 "Hg1 mi
11:25 AM54 °FScattered clouds.3 mph72%30.24 "Hg1 mi
10:55 AM52 °FScattered clouds.No wind77%30.24 "Hg1 mi
10:25 AM52 °FScattered clouds.No wind77%30.24 "Hg1 mi
9:55 AM50 °FFog.No wind82%30.21 "Hg1 mi
9:25 AM50 °FFog.No wind82%30.21 "Hg1 mi
8:55 AM48 °FFog.No wind82%30.21 "Hg1 mi
8:25 AM48 °FFog.No wind82%30.18 "Hg1 mi
5:25 AM46 °FFog.5 mph82%30.12 "Hg1 mi
4:55 AM46 °FFog.7 mph87%30.15 "Hg1 mi
4:25 AM46 °FFog.5 mph87%30.15 "Hg1 mi
3:55 AM48 °FFog.6 mph82%30.15 "Hg1 mi
3:25 AM48 °FFog.5 mph82%30.15 "Hg1 mi
2:55 AM48 °FFog.3 mph87%30.15 "Hg1 mi
1:55 AM48 °FFog.6 mph87%30.15 "Hg1 mi
1:25 AM48 °FFog.6 mph87%30.15 "Hg1 mi
12:55 AM48 °FFog.7 mph87%30.15 "Hg1 mi
12:25 AM48 °FFog.7 mph87%30.15 "Hg1 mi
11:55 PM
Jan 25
50 °FFog.6 mph82%30.15 "Hg1 mi
11:25 PM50 °FFog.3 mph82%30.15 "Hg1 mi
10:25 PM50 °FFog.5 mph88%30.15 "Hg1 mi
9:55 PM52 °FFog.3 mph88%30.15 "Hg1 mi
9:25 PM52 °FFog.3 mph88%30.15 "Hg1 mi
8:55 PM52 °FFog.5 mph88%30.12 "Hg1 mi
8:25 PM52 °FFog.6 mph88%30.12 "Hg1 mi
7:55 PM54 °FFog.7 mph82%30.12 "Hg1 mi
7:25 PM54 °FFog.7 mph82%30.12 "Hg1 mi
6:55 PM55 °FPassing clouds.5 mph77%N/A1 mi
6:25 PM55 °FPassing clouds.7 mph77%30.09 "Hg1 mi
5:55 PM55 °FScattered clouds.6 mph77%30.09 "Hg1 mi
5:25 PM57 °FScattered clouds.3 mph72%30.09 "Hg2 mi
4:55 PM57 °FScattered clouds.5 mph72%30.09 "Hg2 mi
4:25 PM57 °FScattered clouds.No wind72%30.09 "Hg2 mi
3:55 PM57 °FScattered clouds.5 mph72%30.12 "Hg2 mi
3:25 PM57 °FScattered clouds.5 mph72%30.12 "Hg2 mi
2:30 PM55 °FScattered clouds.No wind77%30.12 "Hg1 mi
2:00 PM55 °FScattered clouds.3 mph77%30.15 "Hg1 mi
Weather by CustomWeather, © 2014

See weather overviewHow to use our weather pages